FW9856 Weather Reports


time (UTC)temp
C
wind
direction
speed
KPH
gust
KPH
rain 1hr
cm
rain 24hr
cm
rain mn
cm
humidity
%
barometer
mb
20260906103031 21 98 0.0 3.2 0.00 0.00 0.00 88 1017.7
20260906101531 21 98 0.0 4.8 0.00 0.00 0.00 87 1017.4
20260906100034 22 98 0.0 4.8 0.00 0.00 0.00 87 1017.3
20260906094550 22 98 0.0 3.2 0.00 0.00 0.00 87 1017.5
20260906093042 22 98 0.0 4.8 0.00 0.00 0.00 87 1017.3
20260906091531 22 99 1.6 6.4 0.00 0.00 0.00 86 1017.2
20260906090035 22 98 1.6 6.4 0.00 0.00 0.00 86 1017.1
20260906084534 22 94 3.2 4.8 0.00 0.00 0.00 86 1017.2
20260906083041 22 94 0.0 3.2 0.00 0.00 0.00 87 1017.2
20260906081509 22 94 0.0 4.8 0.00 0.00 0.00 87 1017.4
20260906080010 22 94 0.0 3.2 0.00 0.00 0.00 87 1017.4
20260906074516 22 96 0.0 6.4 0.00 0.00 0.00 86 1017.3
20260906073027 22 72 0.0 3.2 0.00 0.00 0.00 87 1017.4
20260906071525 22 89 0.0 3.2 0.00 0.00 0.00 87 1017.2
20260906070010 22 5 0.0 4.8 0.00 0.00 0.00 87 1017.3
20260906064508 22 39 1.6 4.8 0.00 0.00 0.00 88 1017.4
20260906063019 22 350 0.0 8.0 0.00 0.00 0.00 87 1017.4
20260906061529 22 90 0.0 8.0 0.00 0.00 0.00 87 1017.4
20260906060028 22 355 3.2 8.0 0.00 0.00 0.00 87 1017.4
20260906054508 22 28 1.6 12.9 0.00 0.00 0.00 87 1017.2
20260906053014 22 72 1.6 11.3 0.00 0.00 0.00 87 1017.0
20260906051519 22 88 4.8 12.9 0.00 0.00 0.00 87 1016.8
20260906050023 22 103 3.2 16.1 0.00 0.00 0.00 87 1016.6
20260906044528 22 130 4.8 16.1 0.00 0.00 0.00 87 1016.5
20260906043008 23 90 1.6 14.5 0.00 0.00 0.00 87 1016.4
20260906041514 23 98 1.6 11.3 0.00 0.00 0.00 88 1016.4
20260906040027 22 82 1.6 11.3 0.00 0.00 0.00 87 1016.3
20260906034527 22 348 1.6 17.7 0.00 0.00 0.00 88 1016.2
20260906033041 23 9 4.8 24.1 0.00 0.00 0.00 88 1016.1
20260906031514 23 34 3.2 12.9 0.00 0.00 0.00 87 1016.0
20260906030020 23 110 8.0 17.7 0.00 0.00 0.00 87 1015.9
20260906024540 23 65 4.8 19.3 0.00 0.00 0.00 87 1016.1
20260906023028 23 92 3.2 14.5 0.00 0.00 0.00 87 1016.3
20260906021531 23 352 4.8 14.5 0.00 0.00 0.00 87 1016.2
20260906020011 23 344 4.8 16.1 0.00 0.00 0.00 86 1016.3
20260906014525 23 360 1.6 11.3 0.00 0.00 0.00 85 1016.2
20260906013040 22 32 3.2 12.9 0.00 0.00 0.00 85 1016.1
20260906011530 22 5 4.8 19.3 0.00 0.00 0.00 85 1015.9
20260906010032 22 271 3.2 19.3 0.00 0.00 0.00 85 1015.6
20260906004515 22 5 1.6 16.1 0.00 0.00 0.00 85 1015.4
20260906003023 22 20 4.8 16.1 0.00 0.00 0.00 84 1015.5
20260906001532 23 318 4.8 16.1 0.00 0.00 0.00 84 1015.6
20260906000030 23 5 3.2 17.7 0.00 0.00 0.00 83 1015.6
20260905234536 23 296 4.8 19.3 0.00 0.00 0.00 84 1015.3
20260905233018 23 32 1.6 22.5 0.00 0.00 0.00 83 1015.2
20260905231524 24 342 4.8 16.1 0.00 0.00 0.00 82 1015.1
20260905230030 25 5 9.7 20.9 0.00 0.00 0.00 80 1014.9
20260905224531 25 310 4.8 16.1 0.00 0.00 0.00 80 1014.9
20260905223033 25 318 4.8 17.7 0.00 0.00 0.00 81 1015.0
20260905221521 24 5 3.2 17.7 0.00 0.00 0.00 82 1015.0
20260905220028 24 275 6.4 16.1 0.00 0.00 0.00 82 1015.2
20260905214531 24 308 6.4 17.7 0.00 0.00 0.00 82 1015.1
20260905213042 25 15 6.4 16.1 0.00 0.00 0.00 82 1014.9
20260905211540 25 330 4.8 19.3 0.00 0.00 0.00 81 1014.9
20260905210024 25 332 4.8 19.3 0.00 0.00 0.00 79 1014.8
20260905204537 26 5 6.4 16.1 0.00 0.00 0.00 79 1014.7
20260905203030 26 307 8.0 19.3 0.00 0.00 0.00 79 1014.9
20260905201534 26 24 4.8 19.3 0.00 0.00 0.00 79 1015.0
20260905200017 26 328 11.3 20.9 0.00 0.00 0.00 78 1014.9
20260905194513 26 11 6.4 19.3 0.00 0.00 0.00 78 1015.0
20260905193006 27 348 8.0 22.5 0.00 0.00 0.00 76 1015.1
20260905191510 27 12 6.4 17.7 0.00 0.00 0.00 76 1015.2
20260905190010 27 33 4.8 14.5 0.00 0.00 0.00 75 1015.0
20260905184510 27 317 3.2 19.3 0.00 0.00 0.00 76 1015.0
20260905183012 27 342 4.8 17.7 0.00 0.00 0.00 77 1014.9
20260905181508 28 5 6.4 17.7 0.00 0.00 0.00 73 1014.9
20260905180016 28 350 6.4 19.3 0.00 0.00 0.00 72 1014.9
20260905174512 28 27 6.4 20.9 0.00 0.00 0.00 74 1014.8
20260905173015 28 321 6.4 20.9 0.00 0.00 0.00 73 1014.7
20260905171517 28 323 6.4 19.3 0.00 0.00 0.00 73 1014.8
20260905170008 28 281 6.4 17.7 0.00 0.00 0.00 74 1015.0
20260905164516 28 350 4.8 16.1 0.00 0.00 0.00 75 1014.8
20260905163019 28 327 6.4 14.5 0.00 0.00 0.00 76 1014.9
20260905161517 28 22 8.0 16.1 0.00 0.00 0.00 77 1014.9
20260905160015 27 31 3.2 14.5 0.00 0.00 0.00 82 1014.8
20260905154516 27 347 8.0 16.1 0.00 0.00 0.00 82 1014.7
20260905153018 27 313 1.6 14.5 0.00 0.00 0.00 82 1014.6
20260905151525 27 350 3.2 14.5 0.00 0.00 0.00 83 1014.5
20260905150020 27 311 3.2 14.5 0.00 0.00 0.00 82 1014.5
20260905144525 27 309 4.8 14.5 0.00 0.00 0.00 82 1014.3
20260905143026 27 313 3.2 11.3 0.00 0.00 0.00 83 1014.0
20260905141533 27 338 3.2 9.7 0.00 0.00 0.00 83 1014.0
20260905140004 27 351 3.2 9.7 0.00 0.00 0.00 83 1014.0
20260905134507 26 310 3.2 9.7 0.00 0.00 0.00 85 1014.3
20260905133010 26 334 1.6 6.4 0.00 0.00 0.00 87 1014.1
20260905131526 26 315 0.0 6.4 0.00 0.00 0.00 88 1013.9
20260905130025 25 334 1.6 8.0 0.00 0.00 0.00 89 1013.8
20260905124505 25 9 1.6 11.3 0.00 0.00 0.00 89 1013.6
20260905123015 25 305 1.6 4.8 0.00 0.00 0.00 90 1013.5
20260905121513 25 301 0.0 6.4 0.00 0.00 0.00 90 1013.4
20260905120026 25 277 0.0 3.2 0.00 0.00 0.00 91 1013.1
20260905114527 25 277 0.0 0.0 0.00 0.00 0.00 91 1013.1
20260905113008 25 277 0.0 0.0 0.00 0.00 0.00 91 1012.9
20260905111510 25 277 0.0 0.0 0.00 0.00 0.00 91 1012.7
20260905110020 25 277 0.0 4.8 0.00 0.00 0.00 90 1012.6
20260905104525 25 277 0.0 0.0 0.00 0.00 0.00 90 1012.6